Home   Weather   Potsdam   Past weeks

Flag for Germany Past Weather in Potsdam, Brandenburg, Germany — Yesterday and Last 2 Weeks

Now
50 °F

Light rain. Partly sunny.


Feels Like: 43 °F
Forecast: 41 / 49 °F
Wind: 24 mph from West

Location: Berlin-Tegel

Current Time: Feb 22, 2017 at 12:10:07 pm

Latest Report: Feb 22, 2017 at 11:50 am


Visibility: 6 mi

Pressure: 29.47 "Hg

Humidity: 88%

Dew Point: 46 °F

Location of PotsdamLocation

Past Weather in Potsdam — Graph

°F

Potsdam Temperature Yesterday

Maximum temperature yesterday: 50 °F (at 12:20 am)
Minimum temperature yesterday: 37 °F (at 8:50 pm)
Average temperature yesterday: 45 °F

High & Low Weather Summary for the Past Weeks

 TemperatureHumidityPressure
High54 °F (Feb 15, 2:50 pm)100% (Feb 17, 3:20 am)30.69 "Hg (Feb 17, 3:20 am)
Low19 °F (Feb 14, 5:20 am)28% (Feb 15, 2:50 pm)29.47 "Hg (Feb 22, 9:50 am)
Average34 °F78%30.29 "Hg
* Reported Feb 7 10:20 am — Feb 22 10:50 am, Potsdam, Weather by CustomWeather, © 2017

Note: Actual official high and low records may vary slightly from our data, if they occured in-between our weather recording intervals... More about our weather records

Advertising

Potsdam Weather History for the Previous 24 Hours

Scroll right to see more
 ConditionsComfort  
Time TempWeatherWind HumidityBarometerVisibility
10:50 am
Wed, Feb 22
50 °FLight rain. Partly sunny.23 mph88%29.47 "HgN/A
10:20 am50 °FLight rain. Partly sunny.22 mph88%29.47 "HgN/A
9:50 am50 °FLight rain. Partly sunny.24 mph88%29.47 "Hg6 mi
9:20 am50 °FDrizzle. Partly sunny.22 mph88%29.50 "HgN/A
8:50 am50 °FPartly sunny.21 mph82%29.50 "HgN/A
8:20 am50 °FBroken clouds.20 mph82%29.50 "HgN/A
7:50 am46 °FBroken clouds.14 mph93%29.50 "HgN/A
7:20 am46 °FMostly cloudy.16 mph93%29.50 "HgN/A
6:50 am46 °FMostly cloudy.16 mph87%29.50 "HgN/A
6:20 am43 °FDrizzle. Mostly cloudy.13 mph100%29.53 "Hg4 mi
5:50 am43 °FDrizzle. Mostly cloudy.13 mph93%29.56 "Hg4 mi
5:20 am41 °FLight rain. Low clouds.10 mph93%29.59 "Hg4 mi
4:50 am41 °FLight rain. Mostly cloudy.9 mph87%29.62 "HgN/A
4:20 am41 °FLight rain. Passing clouds.10 mph81%29.62 "HgN/A
3:50 am41 °FPassing clouds.10 mph81%29.65 "HgN/A
3:20 am39 °FPassing clouds.9 mph87%29.68 "HgN/A
2:50 am39 °FClear.9 mph87%29.71 "Hg10 mi
2:20 am39 °FClear.8 mph87%29.74 "Hg10 mi
1:50 am39 °FClear.6 mph87%29.77 "Hg10 mi
1:20 am39 °FClear.8 mph87%29.80 "Hg10 mi
12:50 am39 °FClear.7 mph87%29.83 "Hg10 mi
12:20 am39 °FPassing clouds.7 mph87%29.83 "HgN/A
11:50 pm
Tue, Feb 21
39 °FPassing clouds.8 mph93%29.83 "HgN/A
11:20 pm41 °FClear.10 mph87%29.86 "Hg10 mi
10:50 pm39 °FClear.10 mph87%29.86 "Hg10 mi
10:20 pm39 °FPassing clouds.9 mph87%29.86 "HgN/A
9:50 pm41 °FPassing clouds.10 mph87%29.86 "HgN/A
9:20 pm37 °FPassing clouds.7 mph87%29.86 "HgN/A
8:50 pm37 °FPassing clouds.8 mph87%29.86 "HgN/A
8:20 pm39 °FPassing clouds.10 mph81%29.86 "HgN/A
7:50 pm39 °FPassing clouds.10 mph81%29.83 "HgN/A
7:20 pm39 °FPassing clouds.8 mph87%29.83 "HgN/A
6:50 pm43 °FClear.12 mph76%29.83 "Hg10 mi
6:20 pm45 °FPassing clouds.13 mph71%29.83 "HgN/A
5:50 pm45 °FPassing clouds.15 mph71%29.83 "HgN/A
5:20 pm46 °FPassing clouds.17 mph66%29.80 "HgN/A
4:50 pm46 °FPassing clouds.14 mph71%29.80 "HgN/A
4:20 pm46 °FScattered showers. Passing clouds.15 mph71%29.80 "HgN/A
3:50 pm48 °FScattered clouds.18 mph62%29.77 "HgN/A
3:20 pm48 °FScattered clouds.16 mph62%29.77 "HgN/A
2:50 pm48 °FBroken clouds.18 mph62%29.77 "HgN/A
2:20 pm48 °FScattered clouds.20 mph62%29.77 "HgN/A
1:50 pm48 °FPartly sunny.20 mph66%29.77 "HgN/A
1:20 pm48 °FPartly sunny.18 mph66%29.77 "HgN/A
12:50 pm48 °FScattered clouds.21 mph66%29.77 "HgN/A
12:20 pm48 °FScattered clouds.15 mph76%29.77 "HgN/A
Weather by CustomWeather, © 2017

See weather overviewHow to use our weather pages